Location: Reeth
(54.3881°N, 1.9432°W)
Time: 08:52:43
(UTC+01:00)

ISS - Visible Passes

Search period start: 23 July 2018 00:00
Search period end: 02 August 2018 00:00
Orbit: 402 x 408 km, 51.6° (Epoch: 23 July)

Date Brightness Start Highest point End Pass type
(mag) Time Alt. Az. Time Alt. Az. Time Alt. Az.
23 Jul -3.7 00:13:45 10° WSW 00:16:58 53° S 00:20:11 10° E visible
23 Jul -3.3 01:50:07 10° W 01:53:11 36° SSW 01:53:23 36° S visible
23 Jul -3.6 23:21:43 10° WSW 23:24:54 49° S 23:28:07 10° E visible
24 Jul -3.6 00:58:00 10° W 01:01:10 44° SSW 01:01:46 39° SSE visible
24 Jul -3.4 22:29:45 10° WSW 22:32:52 42° SSE 22:36:01 10° E visible
25 Jul -3.7 00:05:54 10° W 00:09:07 50° S 00:10:49 24° ESE visible
25 Jul -1.8 01:42:26 10° W 01:43:26 16° WSW 01:43:26 16° WSW visible
25 Jul -3.7 23:13:49 10° WSW 23:17:02 53° S 23:20:04 11° ESE visible
26 Jul -2.9 00:50:13 10° W 00:52:41 31° SW 00:52:41 31° SW visible
26 Jul -3.6 22:21:45 10° WSW 22:24:57 51° S 22:28:10 10° E visible
26 Jul -3.4 23:58:03 10° W 00:01:11 41° SSW 00:02:01 34° SSE visible
27 Jul -3.6 23:05:55 10° W 23:09:07 48° S 23:11:24 17° ESE visible
28 Jul -2.0 00:42:31 10° W 00:44:02 19° WSW 00:44:02 19° WSW visible
28 Jul -3.6 22:13:48 10° W 22:17:00 52° S 22:20:13 10° ESE visible
28 Jul -2.9 23:50:14 10° W 23:53:10 30° SSW 23:53:27 30° S visible
29 Jul -3.2 22:58:00 10° W 23:01:06 38° SSW 23:02:54 20° SE visible
30 Jul -1.3 00:35:08 10° WSW 00:35:31 11° WSW 00:35:31 11° WSW visible
30 Jul -3.4 22:05:49 10° W 22:08:59 46° S 22:12:09 10° ESE visible
30 Jul -2.2 23:42:31 10° W 23:44:59 20° SSW 23:44:59 20° SSW visible
31 Jul -2.6 22:50:08 10° W 22:52:58 27° SSW 22:54:29 19° SSE visible
01 Aug -2.9 21:57:51 10° W 22:00:53 35° SSW 22:03:55 10° SE visible
01 Aug -1.5 23:35:16 10° WSW 23:36:37 12° SW 23:36:37 12° SW visible
